Location: Newark
(3.0500°N, 36.0167°E)
Time: 18:53:29
(UTC+00:00)

A-11 Canister half - Pass Details

Date: 25 August 2019
Orbit: 1527 x 1682 km, 47.3° (Epoch: 13 October)

Event Time Altitude Azimuth Distance (km) Brightness Sun altitude
Rises 18:08:54 0° 307° (NW) 4,890 12.5 -36.2°
Reaches altitude 10° 18:12:15 10° 301° (WNW) 3,887 11.8 -37.0°
Maximum altitude 18:21:33 46° 231° (SW) 2,064 9.7 -39.2°
Enters shadow 18:23:17 43° 205° (SSW) 2,144 9.6 -39.6°
Drops below altitude 10° 18:30:38 10° 160° (SSE) 3,778 - -41.4°
Sets 18:33:52 0° 154° (SSE) 4,742 - -42.2°
